| time (UTC) | temp F | wind direction | speed knots | gust knots | rain 1hr in | rain 24hr in | rain mn in | humidity % | barometer mb |
| 20260505214503 | 49 | 93 | 0.9 | 1.7 | 0.00 | 0.00 | 0.00 | 82 | 1011.2 |
| 20260505214217 | 49 | 99 | 0.9 | 1.7 | 0.00 | 0.00 | 0.00 | 81 | 1011.3 |
| 20260505213503 | 49 | 93 | 0.9 | 1.7 | 0.00 | 0.00 | 0.00 | 80 | 1011.3 |
| 20260505213217 | 49 | 93 | 0.9 | 1.7 | 0.00 | 0.00 | 0.00 | 80 | 1011.2 |
| 20260505212503 | 50 | 91 | 0.9 | 1.7 | 0.00 | 0.00 | 0.00 | 79 | 1011.2 |
| 20260505212004 | 50 | 76 | 0.9 | 1.7 | 0.00 | 0.00 | 0.00 | 79 | 1011.3 |
| 20260505211503 | 50 | 85 | 0.0 | 1.7 | 0.00 | 0.00 | 0.00 | 79 | 1011.5 |
| 20260505211004 | 50 | 101 | 0.9 | 1.7 | 0.00 | 0.00 | 0.00 | 79 | 1011.4 |
| 20260505210717 | 50 | 104 | 0.9 | 1.7 | 0.00 | 0.00 | 0.00 | 78 | 1011.3 |
| 20260505210003 | 50 | 80 | 0.0 | 1.7 | 0.00 | 0.00 | 0.00 | 78 | 1011.2 |
| 20260505205503 | 50 | 59 | 0.0 | 1.7 | 0.00 | 0.00 | 0.00 | 78 | 1011.3 |
| 20260505205003 | 51 | 67 | 0.9 | 1.7 | 0.00 | 0.00 | 0.00 | 77 | 1011.1 |
| 20260505204503 | 51 | 101 | 0.0 | 1.7 | 0.00 | 0.00 | 0.00 | 78 | 1011.2 |
| 20260505204003 | 51 | 93 | 0.0 | 1.7 | 0.00 | 0.00 | 0.00 | 77 | 1011.2 |
| 20260505203503 | 51 | 76 | 0.9 | 1.7 | 0.00 | 0.00 | 0.00 | 77 | 1011.1 |
| 20260505203003 | 51 | 87 | 0.0 | 1.7 | 0.00 | 0.00 | 0.00 | 77 | 1011.1 |
| 20260505202503 | 51 | 89 | 0.0 | 1.7 | 0.00 | 0.00 | 0.00 | 77 | 1011.4 |
| 20260505202003 | 51 | 71 | 0.0 | 1.7 | 0.00 | 0.00 | 0.00 | 77 | 1011.2 |
| 20260505201503 | 51 | 75 | 0.0 | 1.7 | 0.00 | 0.00 | 0.00 | 76 | 1011.0 |
| 20260505201004 | 51 | 75 | 0.9 | 1.7 | 0.00 | 0.00 | 0.00 | 76 | 1011.2 |
| 20260505200503 | 51 | 56 | 0.9 | 1.7 | 0.00 | 0.00 | 0.00 | 76 | 1011.2 |
| 20260505200004 | 51 | 54 | 0.9 | 1.7 | 0.00 | 0.00 | 0.00 | 75 | 1011.3 |
| 20260505195503 | 51 | 75 | 0.9 | 1.7 | 0.00 | 0.00 | 0.00 | 75 | 1011.1 |
| 20260505195003 | 52 | 85 | 0.9 | 1.7 | 0.00 | 0.00 | 0.00 | 74 | 1011.1 |
| 20260505194503 | 52 | 69 | 0.9 | 1.7 | 0.00 | 0.00 | 0.00 | 74 | 1011.2 |
| 20260505194003 | 52 | 51 | 0.9 | 1.7 | 0.00 | 0.00 | 0.00 | 73 | 1011.1 |
| 20260505193503 | 52 | 53 | 0.9 | 2.6 | 0.00 | 0.00 | 0.00 | 73 | 1011.2 |
| 20260505193003 | 53 | 50 | 0.9 | 3.5 | 0.00 | 0.00 | 0.00 | 72 | 1011.2 |
| 20260505192503 | 53 | 51 | 0.9 | 3.5 | 0.00 | 0.00 | 0.00 | 72 | 1011.1 |
| 20260505192003 | 53 | 62 | 0.9 | 1.7 | 0.00 | 0.00 | 0.00 | 72 | 1011.2 |
| 20260505191503 | 53 | 49 | 0.9 | 3.5 | 0.00 | 0.00 | 0.00 | 71 | 1011.1 |
| 20260505191003 | 53 | 37 | 0.9 | 3.5 | 0.00 | 0.00 | 0.00 | 70 | 1011.1 |
| 20260505190503 | 54 | 37 | 0.9 | 3.5 | 0.00 | 0.00 | 0.00 | 69 | 1011.0 |
| 20260505190004 | 54 | 31 | 0.9 | 5.2 | 0.00 | 0.00 | 0.00 | 69 | 1011.0 |
| 20260505185503 | 54 | 36 | 1.7 | 5.2 | 0.00 | 0.00 | 0.00 | 69 | 1011.0 |
| 20260505185003 | 54 | 49 | 0.9 | 2.6 | 0.00 | 0.00 | 0.00 | 69 | 1010.9 |
| 20260505184503 | 54 | 32 | 0.9 | 6.1 | 0.00 | 0.00 | 0.00 | 68 | 1010.6 |
| 20260505184003 | 54 | 24 | 0.9 | 6.1 | 0.00 | 0.00 | 0.00 | 68 | 1010.7 |
| 20260505183503 | 54 | 22 | 0.9 | 3.5 | 0.00 | 0.00 | 0.00 | 69 | 1010.5 |
| 20260505183003 | 54 | 24 | 1.7 | 3.5 | 0.00 | 0.00 | 0.00 | 68 | 1010.5 |
| 20260505182503 | 54 | 34 | 0.9 | 3.5 | 0.00 | 0.00 | 0.00 | 68 | 1010.5 |
| 20260505182004 | 55 | 37 | 0.9 | 3.5 | 0.00 | 0.00 | 0.00 | 67 | 1010.6 |
| 20260505181503 | 55 | 28 | 0.9 | 3.5 | 0.00 | 0.00 | 0.00 | 66 | 1010.5 |
| 20260505181003 | 55 | 32 | 0.9 | 3.5 | 0.00 | 0.00 | 0.00 | 66 | 1010.4 |
| 20260505180503 | 55 | 35 | 0.9 | 4.3 | 0.00 | 0.00 | 0.00 | 65 | 1010.7 |
| 20260505180003 | 55 | 20 | 0.9 | 4.3 | 0.00 | 0.00 | 0.00 | 65 | 1010.3 |
| 20260505175504 | 55 | 20 | 0.9 | 3.5 | 0.00 | 0.00 | 0.00 | 65 | 1010.2 |
| 20260505175003 | 56 | 42 | 0.9 | 3.5 | 0.00 | 0.00 | 0.00 | 65 | 1010.2 |
| 20260505174716 | 56 | 39 | 0.9 | 3.5 | 0.00 | 0.00 | 0.00 | 64 | 1010.2 |
| 20260505174003 | 56 | 10 | 1.7 | 5.2 | 0.00 | 0.00 | 0.00 | 64 | 1010.2 |
| 20260505173503 | 56 | 12 | 1.7 | 5.2 | 0.00 | 0.00 | 0.00 | 65 | 1010.2 |
| 20260505173215 | 56 | 9 | 1.7 | 3.5 | 0.00 | 0.00 | 0.00 | 64 | 1010.1 |
| 20260505172503 | 56 | 10 | 1.7 | 3.5 | 0.00 | 0.00 | 0.00 | 65 | 1010.2 |
| 20260505172003 | 56 | 8 | 1.7 | 3.5 | 0.00 | 0.00 | 0.00 | 65 | 1010.4 |
| 20260505171503 | 56 | 3 | 1.7 | 4.3 | 0.00 | 0.00 | 0.00 | 65 | 1010.3 |
| 20260505171003 | 56 | 3 | 1.7 | 4.3 | 0.00 | 0.00 | 0.00 | 64 | 1010.4 |
| 20260505170503 | 56 | 9 | 1.7 | 5.2 | 0.00 | 0.00 | 0.00 | 63 | 1010.5 |
| 20260505170213 | 56 | 14 | 1.7 | 5.2 | 0.00 | 0.00 | 0.00 | 64 | 1010.6 |
| 20260505165716 | 56 | 1 | 1.7 | 5.2 | 0.00 | 0.00 | 0.00 | 63 | 1010.4 |
| 20260505165213 | 56 | 5 | 1.7 | 4.3 | 0.00 | 0.00 | 0.00 | 63 | 1010.5 |
| 20260505164717 | 57 | 17 | 1.7 | 6.1 | 0.00 | 0.00 | 0.00 | 61 | 1010.4 |
| 20260505164003 | 57 | 33 | 1.7 | 4.3 | 0.00 | 0.00 | 0.00 | 61 | 1010.4 |
| 20260505163504 | 57 | 27 | 1.7 | 3.5 | 0.00 | 0.00 | 0.00 | 59 | 1010.5 |
| 20260505163216 | 57 | 16 | 1.7 | 3.5 | 0.00 | 0.00 | 0.00 | 59 | 1010.3 |
| 20260505162503 | 57 | 13 | 1.7 | 4.3 | 0.00 | 0.00 | 0.00 | 60 | 1010.3 |
| 20260505162003 | 57 | 359 | 1.7 | 4.3 | 0.00 | 0.00 | 0.00 | 60 | 1010.3 |
| 20260505161503 | 57 | 12 | 1.7 | 4.3 | 0.00 | 0.00 | 0.00 | 59 | 1010.3 |
| 20260505161003 | 57 | 21 | 1.7 | 5.2 | 0.00 | 0.00 | 0.00 | 60 | 1010.1 |
| 20260505160503 | 57 | 7 | 1.7 | 5.2 | 0.00 | 0.00 | 0.00 | 59 | 1010.1 |
| 20260505153003 | 58 | 17 | 1.7 | 4.3 | 0.00 | 0.00 | 0.00 | 57 | 1010.3 |
| 20260505152504 | 58 | 16 | 1.7 | 5.2 | 0.00 | 0.00 | 0.00 | 56 | 1010.3 |
| 20260505152217 | 58 | 8 | 1.7 | 5.2 | 0.00 | 0.00 | 0.00 | 57 | 1010.4 |
| 20260505151503 | 58 | 359 | 1.7 | 5.2 | 0.00 | 0.00 | 0.00 | 57 | 1010.3 |
| 20260505151003 | 58 | 357 | 1.7 | 5.2 | 0.00 | 0.00 | 0.00 | 56 | 1010.6 |
| 20260505150503 | 59 | 13 | 1.7 | 6.1 | 0.00 | 0.00 | 0.00 | 59 | 1010.4 |
| 20260505140503 | 58 | 3 | 1.7 | 5.2 | 0.00 | 0.00 | 0.00 | 56 | 1010.6 |
| 20260505125003 | 58 | 17 | 1.7 | 5.2 | 0.00 | 0.00 | 0.00 | 56 | 1010.8 |
| 20260505124503 | 59 | 39 | 1.7 | 5.2 | 0.00 | 0.00 | 0.00 | 55 | 1010.5 |
| 20260505124003 | 59 | 21 | 1.7 | 4.3 | 0.00 | 0.00 | 0.00 | 51 | 1010.8 |
| 20260505123503 | 58 | 357 | 1.7 | 7.0 | 0.00 | 0.00 | 0.00 | 53 | 1010.7 |
| 20260505123213 | 58 | 359 | 1.7 | 7.0 | 0.00 | 0.00 | 0.00 | 53 | 1010.9 |
| 20260505122716 | 58 | 353 | 2.6 | 7.0 | 0.00 | 0.00 | 0.00 | 55 | 1010.8 |
| 20260505122214 | 58 | 1 | 1.7 | 5.2 | 0.00 | 0.00 | 0.00 | 55 | 1010.8 |
| 20260505121503 | 57 | 7 | 1.7 | 4.3 | 0.00 | 0.00 | 0.00 | 54 | 1010.7 |
| 20260505121003 | 58 | 19 | 1.7 | 4.3 | 0.00 | 0.00 | 0.00 | 54 | 1010.7 |
| 20260505120503 | 58 | 80 | 1.7 | 3.5 | 0.00 | 0.00 | 0.00 | 54 | 1010.7 |
| 20260505120004 | 57 | 357 | 1.7 | 5.2 | 0.00 | 0.00 | 0.00 | 53 | 1010.7 |
| 20260505115503 | 58 | 347 | 1.7 | 5.2 | 0.00 | 0.00 | 0.00 | 52 | 1010.8 |
| 20260505115003 | 58 | 4 | 1.7 | 4.3 | 0.00 | 0.00 | 0.00 | 53 | 1010.7 |
| 20260505114503 | 56 | 27 | 1.7 | 5.2 | 0.00 | 0.00 | 0.00 | 56 | 1010.7 |
| 20260505114003 | 58 | 17 | 1.7 | 5.2 | 0.00 | 0.00 | 0.00 | 56 | 1010.7 |
| 20260505113503 | 59 | 5 | 1.7 | 4.3 | 0.00 | 0.00 | 0.00 | 56 | 1010.8 |
| 20260505113003 | 57 | 16 | 1.7 | 5.2 | 0.00 | 0.00 | 0.00 | 55 | 1010.6 |
| 20260505112717 | 59 | 28 | 1.7 | 5.2 | 0.00 | 0.00 | 0.00 | 55 | 1010.8 |
| 20260505112003 | 59 | 27 | 1.7 | 4.3 | 0.00 | 0.00 | 0.00 | 54 | 1010.9 |
| 20260505111503 | 57 | 358 | 1.7 | 5.2 | 0.00 | 0.00 | 0.00 | 57 | 1010.8 |
| 20260505111216 | 56 | 358 | 1.7 | 5.2 | 0.00 | 0.00 | 0.00 | 57 | 1010.9 |
| 20260505110503 | 59 | 42 | 1.7 | 5.2 | 0.00 | 0.00 | 0.00 | 56 | 1010.8 |
| 20260505102004 | 55 | 9 | 1.7 | 5.2 | 0.00 | 0.00 | 0.00 | 62 | 1011.3 |
| 20260505101503 | 56 | 79 | 0.9 | 4.3 | 0.00 | 0.00 | 0.00 | 60 | 1011.3 |
| 20260505101003 | 55 | 78 | 0.9 | 3.5 | 0.00 | 0.00 | 0.00 | 64 | 1011.3 |
| 20260505100503 | 56 | 83 | 1.7 | 4.3 | 0.00 | 0.00 | 0.00 | 62 | 1011.4 |
| 20260505100003 | 56 | 44 | 1.7 | 4.3 | 0.00 | 0.00 | 0.00 | 65 | 1011.5 |
| 20260505095503 | 54 | 46 | 1.7 | 6.1 | 0.00 | 0.00 | 0.00 | 67 | 1011.4 |
| 20260505095213 | 55 | 76 | 1.7 | 6.1 | 0.00 | 0.00 | 0.00 | 66 | 1011.4 |
| 20260505094503 | 55 | 58 | 1.7 | 5.2 | 0.00 | 0.00 | 0.00 | 68 | 1011.5 |
| 20260505094003 | 54 | 18 | 1.7 | 6.1 | 0.00 | 0.00 | 0.00 | 68 | 1011.5 |
| 20260505093504 | 53 | 6 | 1.7 | 6.1 | 0.00 | 0.00 | 0.00 | 68 | 1011.3 |
| 20260505093215 | 53 | 23 | 1.7 | 6.1 | 0.00 | 0.00 | 0.00 | 71 | 1011.4 |
| 20260505092503 | 53 | 38 | 0.9 | 3.5 | 0.00 | 0.00 | 0.00 | 71 | 1011.4 |
| 20260505092003 | 52 | 52 | 0.9 | 3.5 | 0.00 | 0.00 | 0.00 | 73 | 1011.4 |
| 20260505091503 | 52 | 59 | 0.9 | 3.5 | 0.00 | 0.00 | 0.00 | 73 | 1011.3 |
| 20260505091003 | 52 | 27 | 1.7 | 7.0 | 0.00 | 0.00 | 0.00 | 73 | 1011.5 |
| 20260505090503 | 51 | 12 | 2.6 | 7.0 | 0.00 | 0.00 | 0.00 | 72 | 1011.7 |
| 20260505090003 | 52 | 10 | 1.7 | 5.2 | 0.00 | 0.00 | 0.00 | 73 | 1011.5 |
| 20260505085503 | 51 | 11 | 1.7 | 5.2 | 0.00 | 0.00 | 0.00 | 73 | 1011.6 |
| 20260505085213 | 51 | 10 | 1.7 | 5.2 | 0.00 | 0.00 | 0.00 | 72 | 1011.7 |
| 20260505084503 | 51 | 35 | 1.7 | 5.2 | 0.00 | 0.00 | 0.00 | 73 | 1011.7 |
| 20260505084003 | 51 | 46 | 0.9 | 3.5 | 0.00 | 0.00 | 0.00 | 77 | 1011.4 |
| 20260505083503 | 51 | 47 | 0.9 | 3.5 | 0.00 | 0.00 | 0.00 | 77 | 1011.7 |
| 20260505083003 | 51 | 41 | 0.9 | 4.3 | 0.00 | 0.00 | 0.00 | 79 | 1012.0 |
| 20260505082503 | 51 | 28 | 1.7 | 4.3 | 0.00 | 0.00 | 0.00 | 80 | 1011.8 |
| 20260505082003 | 50 | 26 | 1.7 | 4.3 | 0.00 | 0.00 | 0.00 | 80 | 1012.0 |
| 20260505081714 | 50 | 32 | 0.9 | 3.5 | 0.00 | 0.00 | 0.00 | 80 | 1012.0 |
| 20260505081217 | 50 | 30 | 1.7 | 4.3 | 0.00 | 0.00 | 0.00 | 81 | 1011.8 |
| 20260505080503 | 50 | 18 | 1.7 | 5.2 | 0.00 | 0.00 | 0.00 | 81 | 1011.9 |
| 20260505080003 | 50 | 30 | 1.7 | 5.2 | 0.00 | 0.00 | 0.00 | 81 | 1011.7 |
| 20260505075503 | 50 | 42 | 1.7 | 4.3 | 0.00 | 0.00 | 0.00 | 82 | 1011.7 |
| 20260505075003 | 50 | 41 | 1.7 | 4.3 | 0.00 | 0.00 | 0.00 | 82 | 1012.0 |
| 20260505074717 | 50 | 46 | 1.7 | 4.3 | 0.00 | 0.00 | 0.00 | 82 | 1011.9 |
| 20260505074003 | 50 | 49 | 0.9 | 3.5 | 0.00 | 0.00 | 0.00 | 84 | 1011.8 |
| 20260505073503 | 49 | 37 | 0.9 | 3.5 | 0.00 | 0.00 | 0.00 | 84 | 1011.8 |
| 20260505073003 | 49 | 38 | 0.9 | 2.6 | 0.00 | 0.00 | 0.00 | 84 | 1011.8 |
| 20260505072503 | 49 | 64 | 0.9 | 2.6 | 0.00 | 0.00 | 0.00 | 85 | 1011.7 |
| 20260505072003 | 49 | 56 | 0.9 | 2.6 | 0.00 | 0.00 | 0.00 | 85 | 1011.6 |
| 20260505071503 | 49 | 47 | 0.9 | 2.6 | 0.00 | 0.00 | 0.00 | 85 | 1011.9 |
| 20260505071003 | 49 | 60 | 0.9 | 2.6 | 0.00 | 0.00 | 0.00 | 86 | 1011.7 |
| 20260505070504 | 49 | 59 | 0.9 | 2.6 | 0.00 | 0.00 | 0.00 | 86 | 1011.6 |
| 20260505070219 | 49 | 54 | 0.9 | 2.6 | 0.00 | 0.00 | 0.00 | 86 | 1011.7 |
| 20260505065503 | 49 | 67 | 0.9 | 2.6 | 0.00 | 0.00 | 0.00 | 86 | 1011.9 |
| 20260505065004 | 49 | 72 | 0.9 | 2.6 | 0.00 | 0.00 | 0.00 | 87 | 1011.7 |
| 20260505064503 | 49 | 69 | 0.9 | 2.6 | 0.00 | 0.00 | 0.00 | 88 | 1011.6 |
| 20260505064003 | 48 | 49 | 0.9 | 3.5 | 0.00 | 0.00 | 0.00 | 89 | 1011.7 |
| 20260505063503 | 48 | 39 | 0.9 | 3.5 | 0.00 | 0.00 | 0.00 | 90 | 1011.8 |
| 20260505063003 | 47 | 41 | 0.9 | 3.5 | 0.00 | 0.00 | 0.00 | 91 | 1011.7 |
| 20260505062715 | 47 | 38 | 0.9 | 2.6 | 0.00 | 0.00 | 0.00 | 91 | 1011.5 |
| 20260505062212 | 47 | 45 | 0.9 | 2.6 | 0.00 | 0.00 | 0.00 | 91 | 1011.6 |
| 20260505061716 | 47 | 43 | 0.9 | 2.6 | 0.00 | 0.00 | 0.00 | 92 | 1011.9 |
| 20260505061003 | 47 | 44 | 0.9 | 1.7 | 0.00 | 0.00 | 0.00 | 93 | 1011.8 |
| 20260505060503 | 47 | 44 | 0.0 | 1.7 | 0.00 | 0.00 | 0.00 | 93 | 1012.0 |
| 20260505060003 | 46 | 68 | 0.0 | 1.7 | 0.00 | 0.00 | 0.00 | 94 | 1011.7 |
| 20260505055503 | 46 | 91 | 0.0 | 1.7 | 0.00 | 0.00 | 0.00 | 95 | 1011.9 |
| 20260505055003 | 46 | 105 | 0.9 | 1.7 | 0.00 | 0.00 | 0.00 | 95 | 1011.8 |
| 20260505054713 | 46 | 110 | 0.9 | 1.7 | 0.00 | 0.00 | 0.00 | 95 | 1011.9 |
| 20260505054003 | 46 | 112 | 0.9 | 1.7 | 0.00 | 0.00 | 0.00 | 95 | 1011.7 |
| 20260505053714 | 46 | 110 | 0.9 | 1.7 | 0.00 | 0.00 | 0.00 | 95 | 1012.0 |
| 20260505053217 | 45 | 106 | 0.9 | 1.7 | 0.00 | 0.00 | 0.00 | 95 | 1011.9 |
| 20260505052503 | 45 | 96 | 0.9 | 1.7 | 0.00 | 0.00 | 0.00 | 95 | 1012.0 |
| 20260505052003 | 45 | 95 | 0.9 | 1.7 | 0.00 | 0.00 | 0.00 | 95 | 1011.8 |
| 20260505051503 | 45 | 87 | 0.9 | 1.7 | 0.00 | 0.00 | 0.00 | 95 | 1012.1 |
| 20260505051003 | 45 | 88 | 0.9 | 1.7 | 0.00 | 0.00 | 0.00 | 95 | 1011.9 |
| 20260505050717 | 45 | 92 | 0.9 | 1.7 | 0.00 | 0.00 | 0.00 | 95 | 1012.0 |
| 20260505050215 | 44 | 102 | 0.9 | 1.7 | 0.00 | 0.00 | 0.00 | 95 | 1011.9 |
| 20260505041503 | 44 | 110 | 0.9 | 1.7 | 0.00 | 0.00 | 0.00 | 94 | 1011.9 |
| 20260505041003 | 44 | 112 | 0.9 | 1.7 | 0.00 | 0.00 | 0.00 | 94 | 1011.7 |
| 20260505040503 | 44 | 111 | 0.9 | 1.7 | 0.00 | 0.00 | 0.00 | 94 | 1011.7 |
| 20260505040004 | 44 | 104 | 0.9 | 1.7 | 0.00 | 0.00 | 0.00 | 94 | 1011.7 |
| 20260505035714 | 44 | 93 | 0.9 | 1.7 | 0.00 | 0.00 | 0.00 | 94 | 1011.5 |
| 20260505035003 | 45 | 86 | 0.9 | 1.7 | 0.00 | 0.00 | 0.00 | 94 | 1011.7 |
| 20260505034503 | 45 | 92 | 0.9 | 1.7 | 0.00 | 0.00 | 0.00 | 94 | 1011.7 |
| 20260505034003 | 45 | 99 | 0.9 | 1.7 | 0.00 | 0.00 | 0.00 | 94 | 1011.7 |
| 20260505033503 | 44 | 106 | 0.9 | 1.7 | 0.00 | 0.00 | 0.00 | 93 | 1011.6 |
| 20260505033214 | 45 | 109 | 0.9 | 1.7 | 0.00 | 0.00 | 0.00 | 93 | 1011.7 |
| 20260505032503 | 45 | 108 | 0.9 | 1.7 | 0.00 | 0.00 | 0.00 | 93 | 1012.0 |
| 20260505032003 | 45 | 101 | 0.9 | 1.7 | 0.00 | 0.00 | 0.00 | 93 | 1011.8 |
| 20260505031503 | 46 | 89 | 0.9 | 1.7 | 0.00 | 0.00 | 0.00 | 93 | 1011.6 |
| 20260505031215 | 46 | 86 | 0.9 | 1.7 | 0.00 | 0.00 | 0.00 | 93 | 1011.7 |
| 20260505030714 | 46 | 100 | 0.9 | 1.7 | 0.00 | 0.00 | 0.00 | 94 | 1011.7 |
| 20260505030217 | 46 | 107 | 0.9 | 1.7 | 0.00 | 0.00 | 0.00 | 94 | 1011.8 |
| 20260505025503 | 47 | 72 | 0.9 | 1.7 | 0.00 | 0.00 | 0.00 | 94 | 1011.8 |
| 20260505025217 | 47 | 83 | 0.9 | 1.7 | 0.00 | 0.00 | 0.00 | 94 | 1011.6 |
| 20260505024503 | 47 | 103 | 0.9 | 2.6 | 0.00 | 0.00 | 0.00 | 94 | 1011.7 |
| 20260505024003 | 47 | 100 | 0.9 | 2.6 | 0.00 | 0.00 | 0.00 | 94 | 1011.8 |
| 20260505023503 | 47 | 102 | 0.9 | 2.6 | 0.00 | 0.00 | 0.00 | 94 | 1011.6 |
| 20260505023003 | 47 | 105 | 0.9 | 1.7 | 0.00 | 0.00 | 0.00 | 94 | 1011.6 |
| 20260505022717 | 47 | 104 | 0.9 | 1.7 | 0.00 | 0.00 | 0.00 | 94 | 1011.8 |
| 20260505022003 | 47 | 107 | 0.9 | 1.7 | 0.00 | 0.00 | 0.00 | 94 | 1011.8 |
| 20260505021503 | 47 | 110 | 0.9 | 1.7 | 0.00 | 0.00 | 0.00 | 94 | 1011.9 |
| 20260505021216 | 46 | 108 | 0.9 | 1.7 | 0.00 | 0.00 | 0.00 | 94 | 1012.1 |
| 20260505020714 | 46 | 102 | 0.9 | 1.7 | 0.00 | 0.00 | 0.00 | 94 | 1012.1 |
| 20260505020003 | 46 | 95 | 0.9 | 1.7 | 0.00 | 0.00 | 0.00 | 94 | 1012.1 |
| 20260505015503 | 46 | 100 | 0.9 | 1.7 | 0.00 | 0.00 | 0.00 | 94 | 1012.1 |
| 20260505015003 | 46 | 99 | 0.9 | 1.7 | 0.00 | 0.00 | 0.00 | 94 | 1012.2 |
| 20260505014503 | 46 | 98 | 0.9 | 1.7 | 0.00 | 0.00 | 0.00 | 94 | 1012.2 |
| 20260505014003 | 46 | 93 | 0.0 | 1.7 | 0.00 | 0.00 | 0.00 | 94 | 1012.2 |
| 20260505013503 | 46 | 85 | 0.0 | 1.7 | 0.00 | 0.00 | 0.00 | 94 | 1012.2 |
| 20260505013003 | 46 | 95 | 0.9 | 1.7 | 0.00 | 0.00 | 0.00 | 94 | 1012.4 |
| 20260505012503 | 46 | 109 | 0.9 | 1.7 | 0.00 | 0.00 | 0.00 | 94 | 1012.5 |
| 20260505012003 | 45 | 112 | 0.9 | 1.7 | 0.00 | 0.00 | 0.00 | 94 | 1012.3 |
| 20260505011714 | 45 | 115 | 0.9 | 1.7 | 0.00 | 0.00 | 0.00 | 94 | 1012.3 |
| 20260505011003 | 45 | 106 | 0.9 | 1.7 | 0.00 | 0.00 | 0.00 | 94 | 1012.3 |
| 20260505010503 | 44 | 102 | 0.9 | 1.7 | 0.00 | 0.00 | 0.00 | 94 | 1012.3 |
| 20260505010003 | 44 | 102 | 0.0 | 1.7 | 0.00 | 0.00 | 0.00 | 94 | 1012.3 |
| 20260505005503 | 44 | 103 | 0.0 | 1.7 | 0.00 | 0.00 | 0.00 | 94 | 1012.2 |
| 20260505005004 | 44 | 103 | 0.0 | 1.7 | 0.00 | 0.00 | 0.00 | 93 | 1012.2 |
| 20260505004503 | 43 | 96 | 0.9 | 1.7 | 0.00 | 0.00 | 0.00 | 93 | 1012.3 |
| 20260505004003 | 44 | 89 | 0.9 | 1.7 | 0.00 | 0.00 | 0.00 | 93 | 1012.3 |
| 20260505003503 | 44 | 103 | 0.9 | 1.7 | 0.00 | 0.00 | 0.00 | 93 | 1012.3 |
| 20260505003003 | 44 | 107 | 0.9 | 1.7 | 0.00 | 0.00 | 0.00 | 93 | 1012.4 |
| 20260505002503 | 44 | 100 | 0.9 | 1.7 | 0.00 | 0.00 | 0.00 | 93 | 1012.4 |
| 20260505002003 | 44 | 100 | 0.9 | 1.7 | 0.00 | 0.00 | 0.00 | 93 | 1012.4 |
| 20260505001503 | 44 | 97 | 0.0 | 1.7 | 0.00 | 0.00 | 0.00 | 93 | 1012.4 |
| 20260505001217 | 44 | 94 | 0.0 | 1.7 | 0.00 | 0.00 | 0.00 | 93 | 1012.5 |
| 20260505000715 | 44 | 76 | 0.9 | 1.7 | 0.00 | 0.00 | 0.00 | 93 | 1012.6 |
| 20260505000003 | 44 | 96 | 0.0 | 1.7 | 0.00 | 0.00 | 0.00 | 92 | 1012.5 |
| 20260504235716 | 44 | 105 | 0.0 | 1.7 | 0.00 | 0.00 | 0.00 | 92 | 1012.6 |
| 20260504235003 | 44 | 95 | 0.0 | 1.7 | 0.00 | 0.00 | 0.00 | 92 | 1012.8 |
| 20260504234503 | 45 | 87 | 0.0 | 1.7 | 0.00 | 0.00 | 0.00 | 92 | 1012.7 |
| 20260504234003 | 45 | 84 | 0.0 | 1.7 | 0.00 | 0.00 | 0.00 | 92 | 1012.8 |
| 20260504233503 | 45 | 89 | 0.0 | 1.7 | 0.00 | 0.00 | 0.00 | 92 | 1012.7 |
| 20260504233216 | 45 | 89 | 0.0 | 1.7 | 0.00 | 0.00 | 0.00 | 91 | 1012.6 |
| 20260504232714 | 45 | 89 | 0.9 | 1.7 | 0.00 | 0.00 | 0.00 | 91 | 1012.7 |
| 20260504232003 | 46 | 83 | 0.9 | 1.7 | 0.00 | 0.00 | 0.00 | 91 | 1012.7 |
| 20260504231503 | 45 | 89 | 0.0 | 1.7 | 0.00 | 0.00 | 0.00 | 91 | 1012.5 |
| 20260504231213 | 45 | 91 | 0.0 | 1.7 | 0.00 | 0.00 | 0.00 | 91 | 1012.5 |
| 20260504230503 | 46 | 85 | 0.9 | 1.7 | 0.00 | 0.00 | 0.00 | 91 | 1012.5 |
| 20260504230008 | 46 | 96 | 0.0 | 1.7 | 0.00 | 0.00 | 0.00 | 91 | 1012.5 |
| 20260504225503 | 47 | 103 | 0.0 | 1.7 | 0.00 | 0.00 | 0.00 | 90 | 1012.5 |
| 20260504225003 | 47 | 104 | 0.9 | 1.7 | 0.00 | 0.00 | 0.00 | 90 | 1012.6 |
| 20260504224503 | 47 | 104 | 0.9 | 1.7 | 0.00 | 0.00 | 0.00 | 90 | 1012.5 |
| 20260504224004 | 47 | 105 | 0.9 | 1.7 | 0.00 | 0.00 | 0.00 | 90 | 1012.7 |
| 20260504223714 | 47 | 109 | 0.9 | 1.7 | 0.00 | 0.00 | 0.00 | 90 | 1012.5 |
| 20260504223003 | 47 | 108 | 0.9 | 1.7 | 0.00 | 0.00 | 0.00 | 89 | 1012.6 |
| 20260504222504 | 47 | 108 | 0.9 | 1.7 | 0.00 | 0.00 | 0.00 | 89 | 1012.6 |
| 20260504222003 | 48 | 107 | 0.9 | 1.7 | 0.00 | 0.01 | 0.00 | 88 | 1012.7 |
| 20260504221503 | 48 | 105 | 0.9 | 1.7 | 0.00 | 0.01 | 0.00 | 88 | 1012.8 |
| 20260504221003 | 48 | 87 | 0.0 | 1.7 | 0.00 | 0.01 | 0.00 | 87 | 1012.8 |
| 20260504220503 | 49 | 89 | 0.0 | 1.7 | 0.00 | 0.01 | 0.00 | 87 | 1012.7 |
| 20260504220215 | 49 | 99 | 0.0 | 1.7 | 0.00 | 0.01 | 0.00 | 87 | 1012.8 |
| 20260504215503 | 49 | 83 | 0.0 | 1.7 | 0.00 | 0.02 | 0.00 | 86 | 1012.7 |